Flag for U.S.A. Weather past 2 weeks in Pasadena, California, U.S.A.

Now
78 °F

Sunny.


Feels Like: 79 °F
Forecast: 61 / 81 °F
Wind: 6 mph from Southeast

Location: Burbank-Glendale-Pasadena Airport

Current Time: Jul 6, 2015 at 3:27:18 PM

Latest Report: Jul 6, 2015 at 1:53 PM


Visibility: 10 mi

Pressure: 29.96 "Hg

Humidity: 52%

Dew point: 59 °F

Location of PasadenaLocation

Historic Weather in Pasadena — Graph

°F

Pasadena temperature yesterday

Maximum temperature yesterday: 78 °F (at 1:53 PM)
Minimum temperature yesterday: 63 °F (at 12:53 AM)
Average temperature yesterday: 68 °F

Past Weeks' High & Low Weather Summary

 TemperatureHumidityPressure
High97 °F (Jun 29, 2:53 PM)85% (Jul 3, 6:53 AM)30.03 "Hg (Jul 3, 6:53 AM)
Low63 °F (Jun 26, 5:53 AM)14% (Jun 30, 7:53 PM)29.77 "Hg (Jun 30, 7:53 PM)
Average76 °F54%29.88 "Hg
* Reported Jun 21 1:53 PM — Jul 6 1:53 PM, Pasadena, Weather by CustomWeather, © 2015

Note: Actual official high and low records may vary slightly from our data, if they occured in-between our weather recording intervals... More about our weather records

Advertising

Pasadena weather history for previous 24 hours

 ConditionsComfort  
Time TempWeatherWind HumidityBarometerVisibility
1:53 PM
Mon, Jul 6
78 °FSunny.6 mph52%29.96 "Hg10 mi
12:53 PM75 °FSunny.5 mph58%29.98 "Hg10 mi
11:53 AM72 °FSunny.6 mph64%30.01 "Hg8 mi
10:53 AM69 °FOvercast.7 mph70%30.02 "Hg6 mi
9:53 AM66 °FOvercast.6 mph75%30.03 "Hg6 mi
8:53 AM65 °FOvercast.6 mph78%30.02 "Hg6 mi
7:53 AM65 °FOvercast.6 mph78%30.01 "Hg6 mi
6:53 AM65 °FOvercast.3 mph78%30.00 "Hg6 mi
5:53 AM65 °FOvercast.5 mph78%29.99 "Hg10 mi
4:53 AM65 °FOvercast.No wind78%29.97 "Hg10 mi
3:53 AM65 °FOvercast.5 mph78%29.97 "Hg10 mi
2:53 AM64 °FOvercast.No wind81%29.97 "Hg10 mi
1:53 AM64 °FOvercast.5 mph81%29.98 "Hg10 mi
12:53 AM64 °FOvercast.6 mph81%29.98 "Hg10 mi
11:53 PM
Sun, Jul 5
65 °FOvercast.5 mph78%29.97 "Hg10 mi
10:53 PM65 °FOvercast.5 mph78%29.99 "Hg10 mi
10:04 PM64 °FPassing clouds.6 mph78%30.02 "Hg10 mi
9:53 PM64 °FPassing clouds.7 mph81%29.98 "Hg10 mi
8:53 PM65 °FSunny.9 mph78%29.95 "Hg10 mi
7:53 PM67 °FSunny.7 mph73%29.93 "Hg10 mi
6:53 PM70 °FSunny.10 mph66%29.90 "Hg10 mi
5:53 PM74 °FSunny.10 mph57%29.89 "Hg10 mi
4:53 PM75 °FSunny.12 mph55%29.89 "Hg10 mi
3:53 PM78 °FSunny.13 mph52%29.90 "Hg10 mi
Weather by CustomWeather, © 2015

See weather overviewHow to use our weather pages